Weather History for KDYT - May, 2014

Change the Weather History Date:

Saturday, May 3, 2014

  Actual Average Record
Temperature  
Mean Temperature 48 °F -  
Max Temperature 53 °F 54 °F 78 °F (2000)
Min Temperature 42 °F 35 °F 11 °F (1967)
Degree Days  
Heating Degree Days 18    
Moisture  
Dew Point 33 °F    
Average Humidity 60    
Maximum Humidity 81    
Minimum Humidity 35    
Precipitation  
Precipitation 0.00 in - - ()
Sea Level Pressure  
Sea Level Pressure 29.77 in    
Wind  
Wind Speed 9 mph (WNW)    
Max Wind Speed 25 mph    
Max Gust Speed 26 mph    
Visibility 10 miles    
Events Rain    
Averages and records for this station are not official NWS values.
T = Trace of Precipitation, MM = Missing Value Source: NWS Daily Summary

Daily Weather History Graph

Daily Weather History Graph

Search for Another Location

Airport or City:

Trip Planner

Search our weather history database for the weather conditions in past years. The results will help you decide how hot, cold, wet, or windy it might be!

Date:

Astronomy

May. 03, 2014 Rise Set
Actual Time 5:50 AM CDT 8:20 PM CDT
Civil Twilight 5:16 AM CDT 8:54 PM CDT
Nautical Twilight 4:33 AM CDT 9:37 PM CDT
Astronomical Twilight 3:44 AM CDT 10:27 PM CDT
Moon 9:17 AM CDT (5/3) No Moon Set
Length of Visible Light 15h 38m
Length of Day
14h 30m
Waxing Crescent, 20% of the Moon is Illuminated
May 3
Waxing Crescent
May 6
First Quarter
May 14
Full
May 21
Last Quarter
May 28
New

Hourly Weather History & Observations

Time (CDT) Temp. Windchill Dew Point Humidity Pressure Visibility Wind Dir Wind Speed Gust Speed Precip Events Conditions
12:13 AM 46.4 °F 41.1 °F 37.4 °F 71% 29.64 in 10.0 mi West 11.5 mph - N/A   Overcast
12:33 AM 46.4 °F 41.1 °F 39.2 °F 76% 29.65 in 10.0 mi West 11.5 mph 20.7 mph N/A   Overcast
12:53 AM 44.6 °F 38.8 °F 39.2 °F 81% 29.65 in 10.0 mi West 11.5 mph - N/A   Mostly Cloudy
1:14 AM 44.6 °F 38.8 °F 39.2 °F 81% 29.66 in 10.0 mi West 11.5 mph 16.1 mph N/A   Overcast
1:33 AM 44.6 °F 37.4 °F 37.4 °F 76% 29.66 in 10.0 mi WNW 16.1 mph - N/A   Overcast
1:53 AM 44.6 °F - 37.4 °F 76% 29.66 in 10.0 mi Calm Calm - N/A   Overcast
2:14 AM 44.6 °F - 37.4 °F 76% 29.67 in 10.0 mi Calm Calm - N/A   Overcast
2:33 AM 44.6 °F 39.7 °F 37.4 °F 76% 29.67 in 10.0 mi West 9.2 mph - N/A   Overcast
2:53 AM 44.6 °F 40.2 °F 37.4 °F 76% 29.67 in 10.0 mi West 8.1 mph - N/A   Overcast
3:14 AM 44.6 °F 40.2 °F 37.4 °F 76% 29.68 in 10.0 mi West 8.1 mph - N/A   Overcast
3:33 AM 44.6 °F 42.2 °F 37.4 °F 76% 29.68 in 10.0 mi WNW 4.6 mph - N/A   Overcast
3:53 AM 44.6 °F - 37.4 °F 76% 29.68 in 10.0 mi Calm Calm - N/A   Overcast
4:14 AM 42.8 °F - 37.4 °F 81% 29.69 in 10.0 mi Calm Calm - N/A   Overcast
4:34 AM 44.6 °F 37.8 °F 37.4 °F 76% 29.69 in 10.0 mi WNW 15.0 mph 19.6 mph N/A   Overcast
5:14 AM 42.8 °F 35.4 °F 37.4 °F 81% 29.70 in 10.0 mi WNW 15.0 mph - N/A   Overcast
5:34 AM 42.8 °F 34.5 °F 35.6 °F 76% 29.70 in 10.0 mi West 18.4 mph 24.2 mph N/A   Overcast
5:53 AM 42.8 °F 36.6 °F 35.6 °F 76% 29.71 in 10.0 mi NW 11.5 mph 24.2 mph N/A   Overcast
6:13 AM 42.8 °F 36.2 °F 35.6 °F 76% 29.72 in 10.0 mi WNW 12.7 mph - N/A   Overcast
6:34 AM 42.8 °F 41.1 °F 35.6 °F 76% 29.72 in 10.0 mi WNW 3.5 mph - N/A   Overcast
6:53 AM 42.8 °F - 35.6 °F 76% 29.73 in 10.0 mi Calm Calm - N/A   Overcast
7:13 AM 42.8 °F - 35.6 °F 76% 29.74 in 10.0 mi Calm Calm - N/A   Mostly Cloudy
7:34 AM 44.6 °F - 33.8 °F 66% 29.74 in 10.0 mi Calm Calm - N/A   Mostly Cloudy
7:53 AM 44.6 °F 41.4 °F 33.8 °F 66% 29.75 in 10.0 mi West 5.8 mph 20.7 mph N/A   Mostly Cloudy
8:13 AM 44.6 °F 40.2 °F 35.6 °F 71% 29.75 in 10.0 mi WNW 8.1 mph 20.7 mph N/A   Overcast
8:34 AM 44.6 °F - 35.6 °F 71% 29.76 in 10.0 mi Calm Calm - N/A   Overcast
8:53 AM 44.6 °F 38.4 °F 35.6 °F 71% 29.75 in 10.0 mi WNW 12.7 mph - N/A   Mostly Cloudy
9:13 AM 44.6 °F - 35.6 °F 71% 29.76 in 10.0 mi Calm Calm - N/A   Mostly Cloudy
9:34 AM 46.4 °F 43.5 °F 35.6 °F 66% 29.76 in 10.0 mi West 5.8 mph 16.1 mph N/A   Mostly Cloudy
9:53 AM 48.2 °F - 35.6 °F 62% 29.76 in 10.0 mi West 5.8 mph - N/A   Mostly Cloudy
10:13 AM 48.2 °F - 35.6 °F 62% 29.76 in 10.0 mi Calm Calm - N/A   Mostly Cloudy
10:34 AM 48.2 °F - 33.8 °F 58% 29.77 in 10.0 mi Calm Calm - N/A   Mostly Cloudy
10:53 AM 50.0 °F - 33.8 °F 54% 29.77 in 10.0 mi Calm Calm - N/A   Mostly Cloudy
11:13 AM 51.8 °F - 33.8 °F 50% 29.77 in 10.0 mi Calm Calm - N/A   Mostly Cloudy
11:34 AM 51.8 °F - 32.0 °F 47% 29.77 in 10.0 mi WNW 4.6 mph - N/A   Mostly Cloudy
11:53 AM 51.8 °F - 30.2 °F 44% 29.77 in 10.0 mi WNW 10.4 mph 17.3 mph N/A   Mostly Cloudy
12:13 PM 53.6 °F - 28.4 °F 38% 29.77 in 10.0 mi NW 5.8 mph - N/A   Mostly Cloudy
12:34 PM 50.0 °F - 28.4 °F 43% 29.77 in 10.0 mi Calm Calm - N/A   Mostly Cloudy
12:53 PM 51.8 °F - 28.4 °F 41% 29.77 in 10.0 mi WNW 4.6 mph 25.3 mph N/A   Mostly Cloudy
1:13 PM 53.6 °F - 28.4 °F 38% 29.77 in 10.0 mi WNW 3.5 mph - N/A   Mostly Cloudy
1:34 PM 53.6 °F - 26.6 °F 35% 29.77 in 10.0 mi NW 8.1 mph 19.6 mph N/A   Mostly Cloudy
1:53 PM 53.6 °F - 28.4 °F 38% 29.77 in 10.0 mi Calm Calm - N/A   Mostly Cloudy
2:13 PM 51.8 °F - 30.2 °F 44% 29.77 in 10.0 mi WNW 11.5 mph - N/A   Mostly Cloudy
2:33 PM 51.8 °F - 26.6 °F 38% 29.77 in 10.0 mi WNW 12.7 mph 16.1 mph N/A   Mostly Cloudy
3:14 PM 53.6 °F - 28.4 °F 38% 29.77 in 10.0 mi WNW 10.4 mph - N/A   Scattered Clouds
3:33 PM 53.6 °F - 28.4 °F 38% 29.77 in 10.0 mi West 13.8 mph 20.7 mph N/A   Mostly Cloudy
3:53 PM 53.6 °F - 30.2 °F 41% 29.77 in 10.0 mi West 16.1 mph 19.6 mph N/A   Mostly Cloudy
4:13 PM 53.6 °F - 30.2 °F 41% 29.78 in 10.0 mi WNW 10.4 mph - N/A   Mostly Cloudy
4:33 PM 51.8 °F - 32.0 °F 47% 29.78 in 10.0 mi WNW 20.7 mph - N/A   Mostly Cloudy
4:54 PM 51.8 °F - 35.6 °F 54% 29.79 in 10.0 mi WNW 12.7 mph 17.3 mph N/A   Mostly Cloudy
5:13 PM 51.8 °F - 35.6 °F 54% 29.80 in 10.0 mi WNW 17.3 mph - N/A   Mostly Cloudy
5:34 PM 48.2 °F - 37.4 °F 66% 29.81 in 10.0 mi WNW 18.4 mph - N/A Rain Rain
5:53 PM 48.2 °F - 37.4 °F 66% 29.81 in 10.0 mi WNW 15.0 mph 18.4 mph N/A   Mostly Cloudy
6:13 PM 50.0 °F - 37.4 °F 62% 29.82 in 10.0 mi Calm Calm - N/A   Overcast
6:33 PM 51.8 °F - 33.8 °F 50% 29.82 in 10.0 mi NW 17.3 mph 24.2 mph N/A   Overcast
6:53 PM 50.0 °F - 33.8 °F 54% 29.82 in 10.0 mi WNW 25.3 mph - N/A   Mostly Cloudy
7:14 PM 50.0 °F - 30.2 °F 47% 29.83 in 10.0 mi WNW 17.3 mph 25.3 mph N/A   Scattered Clouds
7:33 PM 48.2 °F - 30.2 °F 50% 29.84 in 10.0 mi NW 21.9 mph - N/A   Scattered Clouds
7:53 PM 48.2 °F - 30.2 °F 50% 29.85 in 10.0 mi WNW 23.0 mph 26.5 mph N/A   Mostly Cloudy
8:14 PM 46.4 °F 39.8 °F 28.4 °F 50% 29.86 in 10.0 mi WNW 16.1 mph 23.0 mph N/A   Overcast
8:53 PM 46.4 °F 41.1 °F 28.4 °F 50% 29.88 in 10.0 mi WNW 11.5 mph 19.6 mph N/A   Overcast
9:14 PM 46.4 °F - 28.4 °F 50% 29.89 in 10.0 mi Calm Calm - N/A   Overcast
9:33 PM 46.4 °F - 28.4 °F 50% 29.89 in 10.0 mi Calm Calm - N/A   Overcast
9:53 PM 44.6 °F - 28.4 °F 53% 29.90 in 10.0 mi Calm Calm - N/A   Overcast
10:14 PM 44.6 °F - 30.2 °F 57% 29.90 in 10.0 mi Calm Calm - N/A   Overcast
10:33 PM 44.6 °F 42.2 °F 28.4 °F 53% 29.91 in 10.0 mi WNW 4.6 mph - N/A   Overcast
10:53 PM 44.6 °F 38.4 °F 28.4 °F 53% 29.91 in 10.0 mi WNW 12.7 mph 17.3 mph N/A   Mostly Cloudy
11:14 PM 42.8 °F 40.1 °F 28.4 °F 57% 29.92 in 10.0 mi WNW 4.6 mph - N/A   Scattered Clouds
11:34 PM 42.8 °F 37.0 °F 30.2 °F 61% 29.93 in 10.0 mi WNW 10.4 mph 18.4 mph N/A   Clear
11:53 PM 42.8 °F 38.0 °F 30.2 °F 61% 29.94 in 10.0 mi WNW 8.1 mph 17.3 mph N/A   Clear